Regional Weather Roundup
Issued by NWS

Home | Current Version | Previous Version | Text Only | Print | Product List | Glossary Off
Versions: 1 2 3 4 5 6 7 8 9 10 11 12 13 14 15 16 17 18 19 20 21 22 23 24 25 26 27 28 29 30 31 32 33 34 35 36 37 38 39 40 41 42 43 44 45 46 47 48 49 50

000
ASUS43 KLSX 221607
RWRMO

WEATHER SUMMARY FOR MISSOURI
NATIONAL WEATHER SERVICE SPRINGFIELD MO
1100 AM CDT FRI AUG 22 2014

NOTE: "FAIR" INDICATES FEW OR NO CLOUDS BELOW 12,000 FEET WITH NO
       SIGNIFICANT WEATHER AND/OR OBSTRUCTIONS TO VISIBILITY.
       CURRENT SKY AND/OR WEATHER CONDITIONS ARE NOT AVAILABLE FOR
       CHILLICOTHE AND FARMINGTON.

MOZ001>031-035>038-043-044-053-054-221700-
...NORTHERN AND WESTERN MISSOURI...

CITY           SKY/WX    TMP DP  RH WIND       PRES   REMARKS
KANSAS CTY INT PTSUNNY   80  73  79 S8        29.95F
KANSAS C DTWN  MOSUNNY   86  72  62 W6        29.94F HX  92
LEE`S SUMMIT   MOSUNNY   85  71  63 SW7       29.97F HX  90
ST JOSEPH      CLOUDY    77  75  93 CALM      29.94S
CHILLICOTHE      N/A     81  74  79 S6        29.96R
KIRKSVILLE     PTSUNNY   82  75  79 SW6       29.98R

$$
MOZ066>068-077>081-088>096-101>105-221700-
...SOUTHWEST MISSOURI...

CITY           SKY/WX    TMP DP  RH WIND       PRES   REMARKS
SPRINGFIELD    SUNNY     90  68  48 SW15      30.03S HX  94
JOPLIN         SUNNY     90  70  51 S13       30.01R HX  95

$$
MOZ032>034-039>042-045>050-055>058-069>072-221700-
...CENTRAL MISSOURI...

CITY           SKY/WX    TMP DP  RH WIND       PRES   REMARKS
COLUMBIA       MOSUNNY   85  74  69 SW5       30.00S HX  92
JEFFERSON CITY MOSUNNY   87  72  60 W3        29.98S HX  93
ROLLA          MOSUNNY   86  71  60 SW10      30.01S HX  91
SEDALIA        MOSUNNY   88  74  63 W6        29.99S HX  96
WHITEMAN AFB   MOSUNNY   85  69  59 W7        29.98R
OSAGE BEACH    MOSUNNY   88  70  55 SW9       30.00S HX  92

$$
MOZ051-052-059>065-221700-
...EAST CENTRAL MISSOURI...

CITY           SKY/WX    TMP DP  RH WIND       PRES   REMARKS
ST LOUIS INTL  PTSUNNY   90  74  59 NW9       30.01S HX  99
SPIRIT OF STL  PTSUNNY   85  73  67 SW3       30.00S HX  91
ST CHARLES     PTSUNNY   84  72  67 SW5       30.00R

$$
MOZ072>076-082>087-097>100-106>115-221700-
...SOUTH CENTRAL AND SOUTHEAST MISSOURI...

CITY           SKY/WX    TMP DP  RH WIND       PRES   REMARKS
CAPE GIRARDEAU PTSUNNY   85  76  74 S6        30.04F HX  94
FARMINGTON     SUNNY     88  72  58 W6        30.06F HX  94
POPLAR BLUFF   SUNNY     86  73  65 SW6       30.04S HX  93
WEST PLAINS    SUNNY     87  71  58 W8        30.08F HX  93

$$


USA.gov is the U.S. government's official web portal to all federal, state and local government web resources and services.